�N����,����,�~����,�C��,���x,�C��,����,���ϕ���,�ő�u�ԕ���,�ő厞����,���˗�,�I�_���x,�n�����x,�ő啗���N��,DTYPE
"23/07/10","00:10",0.0,25.7,94.7,1002.6,274.0,0.8,1.6,261.5,0.00,24.8,24.5,"00:04:56",1
"23/07/10","00:20",0.0,25.7,94.7,1002.4,325.0,0.5,1.3,66.5,0.00,24.8,24.6,"00:14:24",1
"23/07/10","00:30",0.0,25.8,94.7,1002.4,332.3,1.0,1.8,333.2,0.00,24.9,24.3,"00:24:56",1
"23/07/10","00:40",0.0,25.7,94.7,1002.6,330.9,1.1,1.8,329.7,0.00,24.8,24.4,"00:35:36",1
"23/07/10","00:50",0.0,25.6,94.8,1002.6,300.5,0.5,1.4,345.2,0.00,24.7,24.4,"00:48:56",1
"23/07/10","01:00",0.0,25.5,94.8,1002.4,344.5,0.7,1.1,341.5,0.00,24.6,24.3,"00:56:24",1
"23/07/10","01:10",0.0,25.5,94.8,1002.9,292.8,0.5,1.1,336.2,0.00,24.6,24.3,"01:01:36",1
"23/07/10","01:20",0.0,25.5,94.9,1002.4,321.9,0.6,1.0,337.1,0.00,24.7,24.5,"01:16:08",1
"23/07/10","01:30",0.0,25.5,94.9,1002.2,333.3,0.6,1.0,308.9,0.00,24.7,24.4,"01:21:52",1
"23/07/10","01:40",0.0,25.4,94.9,1002.4,224.0,0.3,0.9,258.2,0.00,24.6,24.6,"01:33:04",1
"23/07/10","01:50",0.0,25.5,94.9,1002.6,239.3,0.5,1.4,321.8,0.00,24.7,24.5,"01:49:36",1
"23/07/10","02:00",0.0,25.4,94.9,1002.4,334.6,0.8,1.3,341.0,0.00,24.6,24.4,"01:50:48",1
"23/07/10","02:10",0.0,25.5,95.0,1002.4,341.0,0.8,1.4,323.1,0.00,24.7,24.4,"02:04:56",1
"23/07/10","02:20",0.0,25.3,95.0,1002.2,321.1,0.7,1.2,314.1,0.00,24.5,24.4,"02:13:36",1
"23/07/10","02:30",0.0,25.2,95.1,1002.4,252.5,0.1,0.5,315.5,0.00,24.4,24.5,"02:20:56",1
"23/07/10","02:40",0.0,25.2,95.1,1002.6,302.5,0.2,0.8,339.5,0.00,24.4,24.4,"02:30:24",1
"23/07/10","02:50",0.0,25.3,95.2,1002.4,339.6,0.7,1.4,337.7,0.00,24.5,24.4,"02:40:02",1
"23/07/10","03:00",0.0,25.2,95.2,1002.2,326.7,0.8,1.3,339.1,0.00,24.4,24.5,"02:50:08",1
"23/07/10","03:10",0.0,25.1,95.2,1001.9,317.9,0.2,1.0,339.8,0.00,24.3,24.4,"03:09:44",1
"23/07/10","03:20",0.0,25.0,95.3,1001.9,292.8,0.8,1.3,314.5,0.00,24.2,24.2,"03:10:16",1
"23/07/10","03:30",0.0,24.9,95.3,1001.9,310.2,0.6,1.1,326.8,0.00,24.1,24.4,"03:27:36",1
"23/07/10","03:40",0.0,24.8,95.4,1002.2,328.1,0.7,1.1,311.9,0.00,24.1,24.1,"03:30:32",1
"23/07/10","03:50",0.0,24.8,95.4,1001.9,329.3,0.6,1.2,301.0,0.00,24.1,24.3,"03:44:32",1
"23/07/10","04:00",0.0,24.8,95.5,1001.9,344.0,0.3,1.2,339.8,0.00,24.1,24.3,"03:57:12",1
"23/07/10","04:10",0.0,24.9,95.5,1002.2,317.7,0.6,1.0,352.5,0.00,24.2,24.2,"04:04:00",1
"23/07/10","04:20",0.0,24.9,95.5,1001.7,321.2,0.5,0.8,316.9,0.00,24.2,24.2,"04:11:28",1
"23/07/10","04:30",0.0,24.9,95.5,1002.2,333.2,0.7,1.4,343.7,0.00,24.2,24.2,"04:27:12",1
"23/07/10","04:40",0.0,24.9,95.6,1001.9,285.4,0.7,1.3,313.4,0.00,24.2,24.4,"04:33:36",1
"23/07/10","04:50",0.0,24.9,95.6,1001.9,285.6,0.3,0.8,293.9,0.00,24.2,24.4,"04:46:48",1
"23/07/10","05:00",0.0,24.8,95.6,1001.9,329.6,0.6,1.4,342.8,0.00,24.1,24.3,"04:53:20",1
"23/07/10","05:10",0.0,24.7,95.6,1002.4,264.8,0.3,1.0,252.3,0.00,24.0,24.4,"05:06:56",1
"23/07/10","05:20",0.0,24.7,95.7,1002.2,326.6,0.8,1.2,337.1,0.00,24.0,24.3,"05:18:00",1
"23/07/10","05:30",0.0,24.7,95.7,1002.2,335.2,0.5,1.1,338.9,0.00,24.0,24.3,"05:20:16",1
"23/07/10","05:40",0.0,24.7,95.8,1002.6,287.1,0.7,1.0,305.6,0.00,24.0,24.2,"05:38:16",1
"23/07/10","05:50",0.0,24.7,95.8,1002.4,279.4,0.3,1.0,253.0,0.00,24.0,24.2,"05:46:40",1
"23/07/10","06:00",0.0,24.8,95.9,1002.9,310.2,0.7,1.4,342.4,0.00,24.1,24.4,"05:54:24",1
"23/07/10","06:10",0.0,24.9,95.9,1002.9,318.3,0.6,1.2,346.7,0.00,24.2,24.2,"06:03:36",1
"23/07/10","06:20",0.0,25.0,95.9,1002.9,322.0,0.6,1.1,254.9,0.00,24.3,24.2,"06:18:56",1
"23/07/10","06:30",0.0,25.2,95.9,1002.9,300.9,0.7,1.4,346.1,0.00,24.5,24.2,"06:27:20",1
"23/07/10","06:40",0.0,25.3,96.0,1002.9,249.0,0.6,1.1,303.1,0.02,24.7,24.5,"06:30:16",1
"23/07/10","06:50",0.0,25.4,95.9,1003.1,239.2,0.6,1.2,352.7,0.03,24.7,24.2,"06:49:20",1
"23/07/10","07:00",0.0,25.5,95.9,1002.9,346.2,0.8,1.7,14.3,0.02,24.8,24.2,"06:51:28",1
"23/07/10","07:10",0.0,25.8,95.9,1003.1,326.7,1.0,1.7,334.6,0.02,25.1,24.2,"07:09:44",1
"23/07/10","07:20",0.0,25.9,95.9,1003.4,324.2,0.7,1.3,337.9,0.02,25.2,24.3,"07:14:08",1
"23/07/10","07:30",0.0,26.1,95.9,1002.9,287.0,0.5,0.9,272.6,0.03,25.4,24.1,"07:23:52",1
"23/07/10","07:40",0.0,26.1,95.8,1003.1,315.9,0.5,1.3,314.8,0.01,25.4,24.1,"07:32:32",1
"23/07/10","07:50",0.0,26.3,95.9,1003.1,300.1,0.7,1.2,342.6,0.04,25.6,24.2,"07:48:48",1
"23/07/10","08:00",0.0,26.4,95.9,1003.1,295.7,0.5,1.2,309.0,0.03,25.7,24.4,"07:51:12",1
"23/07/10","08:10",0.0,26.3,95.9,1003.1,322.0,1.0,1.3,343.2,0.05,25.6,24.2,"08:03:12",1
"23/07/10","08:20",0.0,26.6,95.8,1002.9,295.9,0.5,1.1,333.5,0.05,25.9,24.3,"08:10:32",1
"23/07/10","08:30",0.0,26.7,95.6,1002.9,138.0,0.5,1.4,171.0,0.06,26.0,24.2,"08:29:12",1
"23/07/10","08:40",0.0,27.0,95.7,1003.1,167.6,0.2,0.9,153.9,0.07,26.3,24.4,"08:30:24",1
"23/07/10","08:50",0.0,27.4,95.6,1003.1,179.3,0.2,0.8,137.6,0.11,26.7,24.4,"08:43:20",1
"23/07/10","09:00",0.0,27.5,95.5,1002.9,331.2,0.5,1.3,1.2,0.13,26.8,24.3,"08:56:00",1
"23/07/10","09:10",0.0,27.2,95.3,1003.1,358.5,0.7,1.4,352.1,0.10,26.4,24.4,"09:04:00",1
"23/07/10","09:20",0.0,27.4,95.0,1003.4,281.9,0.5,1.4,353.0,0.10,26.6,24.3,"09:15:44",1
"23/07/10","09:30",0.0,27.8,94.7,1002.9,26.2,0.2,0.9,342.7,0.11,26.9,24.2,"09:20:08",1
"23/07/10","09:40",0.0,27.7,94.6,1002.2,282.8,0.5,1.3,341.9,0.07,26.8,24.4,"09:33:04",1
"23/07/10","09:50",0.0,28.0,93.7,1002.6,210.4,0.6,1.4,256.6,0.18,26.9,24.3,"09:40:02",1
"23/07/10","10:00",0.0,28.9,92.9,1002.9,149.3,0.5,1.2,239.2,0.26,27.7,24.2,"09:50:24",1
"23/07/10","10:10",0.0,29.6,91.4,1003.4,83.6,0.6,1.7,4.9,0.27,28.1,24.4,"10:01:44",1
"23/07/10","10:20",0.0,29.5,89.9,1003.4,8.5,0.6,1.7,7.1,0.14,27.7,24.4,"10:18:00",1
"23/07/10","10:30",0.0,29.8,87.3,1003.6,14.9,0.5,1.4,346.7,0.11,27.5,24.3,"10:20:40",1
"23/07/10","10:40",0.0,30.5,84.2,1003.6,168.6,0.3,1.2,229.2,0.22,27.6,24.4,"10:34:24",1
"23/07/10","10:50",0.0,31.1,80.6,1003.1,70.2,0.6,1.9,41.6,0.19,27.4,24.4,"10:43:20",1
"23/07/10","11:00",0.0,31.5,77.7,1003.8,29.1,1.0,2.1,7.2,0.24,27.2,24.5,"10:56:08",1
"23/07/10","11:10",0.0,31.7,75.9,1003.6,55.8,0.5,1.6,40.7,0.17,27.0,24.4,"11:01:20",1
"23/07/10","11:20",0.0,31.7,75.5,1003.4,141.5,0.3,1.2,158.1,0.14,26.9,24.5,"11:14:32",1
"23/07/10","11:30",0.0,31.3,75.0,1003.1,277.9,1.5,2.7,229.9,0.15,26.4,24.6,"11:26:32",1
"23/07/10","11:40",0.0,31.2,75.1,1002.9,223.3,1.1,2.5,217.0,0.15,26.3,24.4,"11:38:24",1
"23/07/10","11:50",0.0,31.3,74.9,1003.1,232.9,0.7,2.2,223.8,0.18,26.4,24.7,"11:45:28",1
"23/07/10","12:00",0.0,31.6,74.3,1003.4,206.2,1.3,3.1,231.0,0.23,26.5,24.7,"11:52:56",1
"23/07/10","12:10",0.0,31.4,73.7,1003.6,240.0,1.1,3.4,226.8,0.16,26.2,24.7,"12:09:12",1
"23/07/10","12:20",0.0,31.4,75.0,1003.1,312.4,1.0,2.7,356.9,0.19,26.5,24.7,"12:18:56",1
"23/07/10","12:30",0.0,31.7,73.9,1003.4,306.6,1.1,4.1,346.8,0.28,26.5,24.7,"12:29:36",1
"23/07/10","12:40",0.0,31.6,73.4,1003.4,320.4,1.2,2.6,328.5,0.22,26.3,25.0,"12:31:04",1
"23/07/10","12:50",0.0,31.6,72.3,1003.1,232.4,1.3,3.2,235.7,0.23,26.0,24.6,"12:46:40",1
"23/07/10","13:00",0.0,31.5,71.5,1003.4,263.7,1.5,3.3,248.4,0.26,25.8,24.8,"12:52:56",1
"23/07/10","13:10",0.0,31.4,71.7,1003.1,305.7,1.3,2.7,233.6,0.17,25.7,25.1,"13:00:40",1
"23/07/10","13:20",0.0,31.1,72.4,1002.9,260.8,1.7,6.0,208.1,0.17,25.6,24.7,"13:14:08",1
"23/07/10","13:30",0.0,31.4,72.8,1002.9,316.8,1.2,3.2,352.3,0.26,26.0,24.7,"13:27:52",1
"23/07/10","13:40",0.0,32.7,70.5,1003.1,217.4,1.2,2.6,245.6,0.51,26.7,25.0,"13:32:08",1
"23/07/10","13:50",0.0,33.2,68.8,1003.8,262.1,1.2,3.4,223.5,0.48,26.7,25.1,"13:49:12",1
"23/07/10","14:00",0.0,33.5,70.0,1003.8,192.7,1.5,3.4,238.1,0.44,27.3,25.1,"13:51:20",1
"23/07/10","14:10",0.0,32.8,66.8,1004.1,199.5,2.1,4.4,212.4,0.38,25.9,25.1,"14:06:00",1
"23/07/10","14:20",0.0,32.6,68.8,1004.1,197.0,2.6,4.7,210.4,0.37,26.2,25.1,"14:12:00",1
"23/07/10","14:30",0.0,32.4,69.9,1003.6,202.1,2.6,5.4,211.3,0.28,26.2,25.2,"14:25:28",1
"23/07/10","14:40",0.0,33.2,65.7,1003.8,190.4,2.2,4.7,192.5,0.46,25.9,25.4,"14:35:12",1
"23/07/10","14:50",0.0,31.4,68.1,1003.1,195.2,3.5,7.0,199.0,0.07,24.8,25.3,"14:49:04",1
"23/07/10","15:00",0.0,30.9,70.9,1002.4,196.5,3.1,5.9,213.2,0.05,25.0,25.3,"14:51:36",1
"23/07/10","15:10",0.0,30.6,71.5,1002.2,225.0,2.1,3.9,212.2,0.00,24.9,25.4,"15:04:24",1
"23/07/10","15:20",0.6,29.3,76.7,1001.9,254.2,2.3,5.5,240.9,0.00,24.8,25.3,"15:11:28",1
"23/07/10","15:30",3.4,27.5,82.1,1001.5,295.8,2.2,4.5,229.4,0.00,24.2,25.3,"15:23:12",1
"23/07/10","15:40",2.8,26.6,85.0,1001.5,241.8,0.7,2.6,195.7,0.00,23.9,25.5,"15:34:16",1
"23/07/10","15:50",0.4,26.6,86.7,1001.2,52.7,0.8,1.9,35.5,0.00,24.2,25.3,"15:40:32",1
"23/07/10","16:00",0.4,26.4,87.8,1000.3,83.2,0.7,1.8,106.7,0.00,24.3,25.3,"15:55:20",1
"23/07/10","16:10",0.2,26.2,88.8,999.8,71.5,0.6,1.4,33.4,0.00,24.2,25.4,"16:09:12",1
"23/07/10","16:20",0.0,26.1,89.6,1000.3,165.7,0.6,1.1,196.9,0.02,24.3,25.5,"16:12:48",1
"23/07/10","16:30",0.0,25.8,90.0,1001.0,109.6,1.1,1.8,130.2,0.09,24.1,25.5,"16:29:52",1
"23/07/10","16:40",0.0,25.6,90.2,1000.8,161.0,1.3,2.8,159.2,0.07,23.9,25.5,"16:39:28",1
"23/07/10","16:50",0.0,25.9,90.4,1000.8,158.6,1.5,3.9,184.6,0.14,24.2,25.5,"16:48:32",1
"23/07/10","17:00",0.0,26.1,90.3,1001.0,143.4,1.2,2.9,133.3,0.18,24.4,25.5,"16:54:32",1
"23/07/10","17:10",0.0,26.0,90.2,1001.2,189.4,0.7,2.2,201.0,0.05,24.3,25.3,"17:03:20",1
"23/07/10","17:20",0.0,25.9,90.5,1001.7,351.5,1.1,2.4,39.6,0.03,24.3,25.3,"17:15:04",1
"23/07/10","17:30",0.0,26.0,90.8,1001.2,62.0,0.5,1.6,121.2,0.06,24.4,25.3,"17:25:52",1
"23/07/10","17:40",0.0,26.5,91.3,1001.5,335.6,0.8,2.8,341.2,0.20,25.0,25.4,"17:37:52",1
"23/07/10","17:50",0.0,27.1,90.9,1001.0,330.8,0.8,2.2,323.6,0.16,25.5,25.2,"17:40:16",1
"23/07/10","18:00",0.0,27.5,89.9,1001.0,259.4,1.0,1.7,244.3,0.12,25.7,25.2,"17:54:40",1
"23/07/10","18:10",0.0,27.7,88.8,1001.5,231.3,1.0,2.4,210.9,0.05,25.7,25.3,"18:04:56",1
"23/07/10","18:20",0.0,27.2,87.2,1001.5,229.5,1.2,2.9,245.5,0.02,24.9,25.2,"18:19:20",1
"23/07/10","18:30",0.0,27.6,86.8,1001.9,265.5,0.7,1.9,231.0,0.02,25.2,25.2,"18:20:08",1
"23/07/10","18:40",0.0,27.9,85.8,1001.9,335.8,0.8,1.8,350.5,0.02,25.3,25.1,"18:32:56",1
"23/07/10","18:50",0.0,27.7,84.7,1001.9,307.5,1.0,2.4,306.7,0.01,24.9,25.2,"18:40:32",1
"23/07/10","19:00",0.0,27.7,84.0,1002.2,313.7,1.0,1.9,334.3,0.01,24.8,25.3,"18:51:52",1
"23/07/10","19:10",0.0,27.6,84.0,1002.2,156.7,0.6,1.6,221.4,0.01,24.7,25.2,"19:07:28",1
"23/07/10","19:20",0.0,27.2,83.9,1002.4,1.1,1.1,2.2,340.4,0.00,24.3,25.2,"19:18:08",1
"23/07/10","19:30",0.0,26.5,84.0,1003.1,332.2,1.2,2.1,329.5,0.00,23.6,25.1,"19:22:56",1
"23/07/10","19:40",0.0,26.3,84.3,1003.6,326.9,1.1,2.7,323.3,0.00,23.5,25.4,"19:37:28",1
"23/07/10","19:50",0.0,26.0,84.9,1003.1,334.6,1.1,2.1,330.2,0.00,23.3,25.2,"19:40:16",1
"23/07/10","20:00",0.0,26.0,86.0,1003.4,332.8,1.2,2.0,341.9,0.00,23.5,25.2,"19:52:32",1
"23/07/10","20:10",0.0,25.4,87.2,1003.1,333.4,2.0,25.8,182.8,0.00,23.2,25.1,"20:09:44",1
"23/07/10","20:20",0.0,25.1,88.1,1002.9,335.2,2.2,26.3,183.4,0.00,23.0,25.2,"20:18:58",1
"23/07/10","20:30",0.0,24.9,89.0,1003.4,327.3,6.2,25.9,183.3,0.00,23.0,25.1,"20:24:16",1
"23/07/10","20:40",0.0,24.6,89.6,1003.1,315.2,2.3,25.5,183.4,0.00,22.8,25.2,"20:31:08",1
"23/07/10","20:50",0.0,24.5,90.0,1003.6,322.4,1.0,1.9,344.7,0.00,22.8,25.0,"20:44:56",1
"23/07/10","21:00",0.0,24.4,90.4,1003.8,352.0,0.6,1.2,344.6,0.00,22.8,25.1,"20:53:20",1
"23/07/10","21:10",0.0,24.4,90.8,1003.8,325.5,1.0,1.8,332.6,0.00,22.8,25.0,"21:03:12",1
"23/07/10","21:20",0.0,24.1,91.2,1004.1,317.6,0.8,1.8,339.2,0.00,22.6,25.1,"21:17:52",1
"23/07/10","21:30",0.0,24.2,91.5,1004.1,293.4,0.6,1.4,340.6,0.00,22.8,25.2,"21:28:40",1
"23/07/10","21:40",0.0,24.1,91.7,1004.3,316.7,0.8,1.1,334.1,0.00,22.7,25.0,"21:36:32",1
"23/07/10","21:50",0.0,23.9,91.9,1004.5,305.7,1.0,1.8,335.1,0.00,22.5,25.0,"21:41:44",1
"23/07/10","22:00",0.0,24.1,92.0,1004.3,334.9,0.6,1.4,312.1,0.00,22.8,24.6,"21:50:08",1
"23/07/10","22:10",0.0,23.9,92.2,1004.8,276.4,0.5,1.1,257.2,0.00,22.6,24.8,"22:04:08",1
"23/07/10","22:20",0.0,23.9,92.3,1004.5,304.2,0.7,1.3,315.9,0.00,22.6,24.8,"22:19:52",1
"23/07/10","22:30",0.0,23.7,92.4,1004.8,265.5,0.6,1.6,322.7,0.00,22.4,24.7,"22:20:08",1
"23/07/10","22:40",0.0,23.7,92.6,1005.2,320.5,0.8,1.4,339.8,0.00,22.5,24.7,"22:38:16",1
"23/07/10","22:50",0.0,23.5,92.6,1005.0,281.5,0.6,1.4,312.8,0.00,22.3,24.7,"22:44:00",1
"23/07/10","23:00",0.0,23.4,92.8,1005.0,253.0,0.6,1.3,235.5,0.00,22.2,24.7,"22:59:12",1
"23/07/10","23:10",0.0,23.5,92.9,1005.0,245.0,1.1,2.0,234.0,0.00,22.3,24.8,"23:04:00",1
"23/07/10","23:20",0.0,23.6,92.8,1005.0,264.3,0.7,1.3,242.3,0.00,22.4,24.6,"23:12:40",1
"23/07/10","23:30",0.0,23.6,92.9,1004.8,321.6,1.3,1.8,321.0,0.00,22.4,24.7,"23:28:00",1
"23/07/10","23:40",0.0,23.4,93.0,1005.0,358.2,0.6,1.4,349.4,0.00,22.2,24.5,"23:30:32",1
"23/07/10","23:50",0.0,23.2,93.2,1005.0,298.2,0.7,0.9,328.2,0.00,22.1,24.6,"23:40:16",1
"23/07/10","24:00",0.0,23.1,93.3,1005.0,297.4,1.1,1.6,321.1,0.00,22.0,24.5,"23:54:00",1
